Regional Weather Roundup
Issued by NWS

Home | Current Version | Previous Version | Graphics & Text | Print | Product List | Glossary On
Versions: 1 2 3 4 5 6 7 8 9 10 11 12 13 14 15 16 17 18 19 20 21 22 23 24 25 26 27 28 29 30 31 32 33 34 35 36 37 38 39 40 41 42 43 44 45 46 47 48 49 50
227
ASUS43 KBIS 100102
RWRND

NORTH DAKOTA REGIONAL WEATHER ROUNDUP
NATIONAL WEATHER SERVICE BISMARCK ND
700 PM CST TUE FEB 09 2016

NOTE: "FAIR" INDICATES FEW OR NO CLOUDS BELOW 12,000 FEET WITH NO
SIGNIFICANT WEATHER AND/OR OBSTRUCTIONS TO VISIBILITY.


NDZ001>003-009>011-017-100200-
NORTHWEST NORTH DAKOTA

CITY           SKY/WX    TMP DP  RH WIND       PRES   REMARKS
WILLISTON      CLOUDY    33  23  66 SE6       30.06F
MINOT          CLOUDY    26  16  65 E12       30.11F WCI  16
MINOT AFB      CLOUDY    24  17  75 SE14      30.11F WCI  12
$$

NDZ018>021-031>035-040>046-100200-
SOUTHWEST NORTH DAKOTA

CITY           SKY/WX    TMP DP  RH WIND       PRES   REMARKS
BISMARCK       CLOUDY    36  20  52 E3        30.12F
DICKINSON      CLOUDY    33  22  63 SE3       30.05F
GARRISON         N/A     33  20  58 CALM      30.09F
HETTINGER ARPT CLOUDY    31  19  61 E3        30.08F
$$

NDZ004>008-012>016-024-026-027-054-100200-
NORTHEAST NORTH DAKOTA

CITY           SKY/WX    TMP DP  RH WIND       PRES   REMARKS
GRAND FORKS    PTCLDY     6   0  76 N7        30.27F WCI  -6
GRND FRKS AFB  PTCLDY     7  -1  71 N8        30.26F WCI  -6
DEVILS LAKE    CLOUDY    11   5  77 E9        30.20F WCI  -2
$$

NDZ022-023-025-028>030-036>039-047>053-100200-
SOUTHEAST NORTH DAKOTA

CITY           SKY/WX    TMP DP  RH WIND       PRES   REMARKS
FARGO          CLOUDY    12   4  70 N7        30.24F WCI   1
JAMESTOWN      CLOUDY    16   9  74 E12       30.17F WCI   3
$$





USA.gov is the U.S. government's official web portal to all federal, state and local government web resources and services.